COSMOS 292

Satellite information

Favourite Embed

Satellite Type and Status

PAYLOADIN ORBIT

Key statistics

Satellite COSMOS 292 at a glance.

Uptime

20357

Days in orbit

Revolutions

≈ 14.6

Per day

Orbit

LEO

Low Earth Orbit

Inclination

74.0

Latest

Satellite identification and parameters

Extended collection of information and parameters for COSMOS 292.

Object identification

Identified? True

Debris? False

Object name: COSMOS 292

International designator: 1969-070A

Object number (NORAD): 4070

Object ID (CCSDS): 4070

Country: COMMONWEALTH OF INDEPENDENT STATES (CIS)

Current information (Y/N): Y

RCS size: LARGE

Orbital parameters

Period: 98.96 minutes

Inclination: 74.049 deg

SMA: 7087.087 km

Apoapsis: 715.334 km

Periapsis: 702.571 km

RAAN: 352.4 deg

Eccentricy: 0.0009004

Argument of periapsis: 49.9945 deg

Mean anomaly: 310.2007 deg

Mean motion: 14.55127586 rev/day

Mean motion (dot): 0.00000372 rev/day2

B* drag term: 0.000092617 1/REarth

Two-line elements (TLE)

Creation date: May 8, 2025, 3:01 a.m.

Reference frame: TEME

Reference center: EARTH

Epoch: May 7, 2025, 6:47 p.m. UTC

TLE line 0: 0 COSMOS 292

TLE line 1: 1 04070U 69070A 25127.78282316 .00000372 00000-0 92617-4 0 9998

TLE line 2: 2 04070 74.0490 352.4000 0009004 49.9945 310.2007 14.55127586947146

Live tracking on map

Real-time ground track for satellite COSMOS 292.

In-orbit conjunctions

A list of the most updated potential collisions computed for object COSMOS 292.

Target Orbit TCA Probability of collision Miss distance Type
FENGYUN 1C DEB SSO 2025-04-16 05:11:53 0.0001455469 699.0 (m) DEBRIS

Associated space launch

The first soviet navigation system called Tsiklon consisted of Zaliv satellites in low earth orbit.

COSMOS 292 was lifted into orbit during the mission ‘Kosmos-3M | Zaliv 3’, on board a Kosmos-3M space rocket.

The launch took place on Aug. 13, 1969, 10 p.m. from 132/2.

For more information about the launch, click the button.

Launch to space Kosmos-3M | Zaliv 3
Kosmos-3M | Zaliv 3

Agency: N/A

Status: Launch Successful

Launch date: Aug. 13, 1969, 10 p.m. UTC

Rocket: Kosmos-3M

Launch pad: 132/2

Location: Plesetsk Cosmodrome, Russian Federation

...

Latest news about this satellite

There are no fresh news available about this satellite. Check back as we update our databases every day.


Newsletter sign-up

Weekly statistics, charts and insights to help you stay on top of the space industry.